Theta_e
358 359 357 356 358 360 360 355 348 348 350 350 351 350 350 351 352 352 352 353 352 350 349 348 348 350 351 352 354 355 356 357 358 359 359 359 359 359 358 356 355 353 352 352 352 352 352 351 352 353 355 356 357 357 357 357 357 357 357 356 355 353 351
359 357 355 355 357 361 361 352 347 349 350 350 351 350 351 352 352 353 351 350 349 348 348 348 349 350 351 351 352 352 352 352 352 353 353 352 352 352 351 351 352 352 352 353 351 351 351 351 352 353 355 356 357 358 358 358 358 357 357 357 355 354 352
358 356 355 356 356 359 363 355 348 350 350 350 351 351 352 352 350 350 349 347 348 347 348 348 348 348 347 346 345 344 344 345 345 344 342 343 343 344 347 348 350 351 351 351 350 350 350 351 351 353 354 356 356 356 357 357 357 357 358 357 357 357 355
357 357 354 355 357 357 361 354 346 348 349 349 350 350 349 348 347 348 347 348 347 347 346 346 344 342 339 337 334 333 336 337 338 337 335 335 336 339 343 345 346 348 349 349 349 350 349 349 350 351 352 354 354 354 355 355 356 357 357 357 357 358 358
356 356 355 358 357 358 360 351 343 344 345 345 347 346 346 346 346 346 346 347 345 344 343 339 337 334 330 328 327 328 331 332 334 334 335 336 336 337 340 342 343 345 346 347 348 348 349 348 348 349 350 352 353 353 354 354 355 356 357 357 357 357 357
355 356 357 358 355 356 358 349 340 341 342 344 344 344 346 346 345 345 344 343 341 337 335 333 332 331 330 331 331 331 331 332 333 335 336 337 337 338 339 341 342 343 344 344 346 347 347 348 348 347 347 349 351 353 354 354 355 356 356 357 356 356 357
355 355 355 356 354 353 354 346 339 341 342 343 345 344 345 345 344 344 341 339 335 332 332 332 333 334 333 334 333 333 332 333 334 335 336 337 338 338 338 340 341 342 343 343 344 345 346 347 347 346 346 347 349 351 353 353 354 354 355 356 355 355 356
354 356 354 354 352 351 353 347 339 341 344 344 345 344 344 344 343 342 340 335 333 333 333 334 334 334 334 335 334 335 334 335 336 336 338 338 338 337 337 338 340 341 342 343 343 344 346 347 346 346 347 346 347 349 350 351 352 352 353 354 355 355 354
354 354 353 351 349 351 350 344 339 343 345 344 345 345 343 344 342 341 339 335 334 334 334 334 335 335 335 336 336 337 337 337 338 339 339 340 338 337 337 337 338 340 341 342 342 343 345 346 346 346 347 347 347 347 347 347 348 349 350 352 353 353 354
357 354 353 350 349 352 348 341 341 344 344 343 344 344 343 343 342 341 339 337 335 336 335 336 336 337 337 338 338 339 339 339 339 340 339 339 338 337 338 338 338 340 342 342 342 343 344 345 346 346 347 348 348 348 347 346 345 346 348 349 351 352 352
357 354 355 352 351 354 350 347 348 344 342 343 342 343 343 342 341 340 337 336 337 337 337 337 338 339 340 340 341 340 340 339 339 338 338 337 338 337 338 338 340 341 342 342 342 343 344 344 345 346 346 348 348 349 349 347 346 346 346 347 349 350 351
355 354 354 353 352 353 352 353 353 346 341 341 342 342 342 341 340 339 337 336 338 338 338 338 339 341 341 341 341 341 341 339 336 335 335 335 337 338 339 340 340 341 341 341 342 343 344 345 345 346 346 347 348 348 348 348 348 347 347 346 347 349 349
353 351 350 351 351 351 353 355 355 349 341 340 342 341 341 341 340 338 337 338 338 339 340 339 340 342 342 342 342 341 339 336 333 332 333 335 337 338 339 340 340 340 341 341 342 343 344 345 345 345 346 346 347 347 348 348 348 347 348 347 347 347 348
352 351 349 350 352 354 355 355 357 352 341 339 342 341 341 342 340 338 339 339 339 340 341 341 342 342 343 342 342 340 337 333 332 333 334 335 337 339 339 340 340 341 341 342 342 343 343 344 345 345 346 346 347 347 347 348 348 347 347 347 346 346 346
354 353 353 355 355 354 355 355 358 354 342 339 341 341 341 342 341 341 341 341 341 341 342 343 343 343 343 341 340 338 335 334 334 334 335 336 337 339 339 340 341 341 342 342 342 343 343 344 345 346 346 346 347 347 347 347 347 346 345 346 345 346 346
357 354 354 355 354 353 353 352 353 348 338 337 339 339 340 341 340 341 341 341 342 342 343 343 343 342 341 340 338 336 335 335 335 336 337 337 338 339 340 341 341 341 342 342 342 343 344 344 345 346 346 346 346 346 346 345 344 344 344 344 345 346 347
357 356 356 357 354 353 351 350 350 346 339 336 337 338 339 340 340 341 341 341 342 342 341 341 341 340 339 337 336 335 335 335 336 337 338 338 339 340 341 341 341 341 342 343 343 343 343 344 344 345 345 345 345 344 344 343 343 343 343 343 344 345 346
358 358 358 355 352 352 350 350 352 349 340 334 334 336 336 337 338 339 341 341 341 340 339 339 338 337 336 336 336 336 337 337 338 338 338 340 341 341 342 342 342 342 342 342 343 343 343 343 343 343 343 343 344 343 343 342 342 342 342 342 343 343 344
356 354 353 351 350 351 352 351 344 339 335 333 334 335 335 336 338 339 339 339 338 338 337 335 336 335 335 337 337 338 338 338 339 340 340 341 341 341 342 342 341 342 342 342 343 342 342 343 343 343 342 342 342 342 341 341 341 341 342 342 342 342 342
351 351 351 352 351 353 358 352 338 332 334 335 335 336 336 337 338 337 337 336 336 335 335 335 336 336 336 338 338 339 338 339 340 340 340 341 341 341 341 341 341 342 342 342 342 342 342 342 342 342 342 341 341 341 341 341 341 341 341 342 342 342 341
352 354 354 355 357 361 361 347 334 333 335 335 334 335 335 335 335 334 335 335 335 335 336 336 337 337 338 339 339 339 339 339 340 340 340 341 341 341 341 342 342 342 342 342 342 342 342 342 341 341 341 341 341 341 341 341 341 341 342 342 342 342 342
358 362 362 356 354 355 347 336 331 333 334 333 334 334 334 335 335 336 336 335 336 336 337 338 338 339 340 340 339 339 339 340 340 340 340 340 340 341 341 341 341 341 341 341 341 341 342 341 341 341 340 341 341 341 341 341 341 342 342 342 342 343 343
352 356 354 344 336 336 334 331 332 335 333 334 335 334 335 337 336 337 337 336 336 337 338 339 339 339 340 339 339 339 340 340 340 340 340 340 340 341 341 341 341 341 341 341 341 341 341 341 341 341 341 341 341 341 342 342 342 342 342 342 343 343 343
341 338 335 333 330 330 332 334 335 335 335 336 335 334 336 337 337 339 339 338 339 339 338 339 339 339 339 339 339 339 339 339 340 339 340 340 340 340 340 340 341 340 340 340 340 340 340 340 340 340 341 341 341 341 342 342 342 342 342 342 342 343 343
338 332 329 331 333 333 334 336 336 336 336 335 335 335 337 338 340 341 340 340 340 339 339 339 339 339 340 339 339 339 339 339 339 339 340 340 340 340 340 340 340 340 340 340 340 340 339 340 341 341 341 341 341 342 342 342 342 341 342 342 342 343 343
337 335 333 336 336 336 337 337 336 336 337 336 337 338 338 339 340 340 340 341 340 339 339 339 339 340 340 339 339 339 338 338 339 339 339 339 339 339 339 340 339 339 339 339 339 340 340 340 340 341 341 341 342 342 341 341 341 341 341 342 343 343 343
333 335 337 338 338 339 338 337 338 338 339 339 339 338 338 339 339 339 340 340 339 339 339 339 339 339 339 339 339 338 338 338 338 339 339 338 338 338 338 339 338 338 338 338 339 339 339 340 340 341 341 341 341 341 341 340 341 341 341 342 343 343 343
338 339 339 339 339 340 339 339 340 340 339 339 338 338 338 338 338 338 339 338 338 338 337 338 338 338 338 338 338 338 338 338 338 338 338 337 337 337 337 337 336 336 337 337 338 339 339 340 340 340 341 340 340 340 340 340 340 341 341 342 342 342 343
343 340 338 338 338 338 339 339 339 339 339 339 338 338 337 337 337 338 337 337 337 336 336 337 337 337 337 338 338 338 338 337 336 336 335 334 334 335 335 335 335 335 336 336 337 338 339 339 340 339 339 339 339 339 340 340 340 340 341 341 342 342 343
339 336 336 337 337 337 338 338 339 339 338 338 337 336 335 335 336 336 336 336 336 335 335 336 336 337 337 337 337 337 336 335 334 333 333 333 333 333 334 334 334 335 335 336 337 338 339 339 339 339 338 339 339 338 339 339 339 339 340 341 342 343 343
336 335 336 336 336 338 337 337 338 337 336 336 335 334 334 334 335 335 335 335 334 333 334 334 335 337 337 336 336 335 334 333 332 331 331 331 331 333 333 333 334 334 334 335 336 338 338 339 339 339 338 338 338 338 338 338 337 338 339 341 343 343 343
336 335 336 335 336 336 336 335 336 335 334 334 333 333 334 334 333 334 333 333 332 331 331 332 334 336 335 335 335 333 333 332 331 330 331 331 331 333 332 332 333 333 333 334 336 337 338 339 339 339 338 337 337 337 336 335 335 335 338 341 343 344 344
337 334 334 335 335 335 335 334 333 332 333 333 333 333 333 332 331 331 331 331 330 329 329 329 331 333 334 333 333 332 331 330 330 329 330 331 331 331 331 331 331 331 332 334 336 337 338 339 339 338 337 337 335 334 333 332 332 334 337 340 342 344 345
334 333 334 334 333 333 333 332 332 332 332 332 332 332 331 330 329 328 329 329 328 328 329 329 329 330 331 330 330 330 329 328 329 329 329 330 330 329 329 329 330 331 333 334 336 337 338 338 338 336 333 331 328 327 327 328 329 331 335 340 342 342 344
332 333 334 333 332 332 332 331 331 331 331 331 331 331 330 328 327 327 328 327 327 327 327 328 328 328 328 328 327 327 327 327 328 329 329 329 329 329 329 330 330 332 333 335 336 337 337 335 334 331 327 323 322 322 321 323 326 329 332 337 339 340 340
333 333 332 332 331 330 330 330 330 330 330 330 330 329 328 327 326 326 326 325 325 325 325 325 326 326 326 327 326 326 327 327 328 328 329 329 329 330 330 330 331 332 334 335 337 337 336 333 330 326 322 319 320 320 319 319 325 329 330 332 336 338 340
333 333 332 331 330 329 329 329 329 329 329 329 329 328 327 326 325 325 324 324 324 324 324 325 325 326 326 327 326 327 327 328 328 329 329 329 330 331 331 331 332 332 334 336 337 336 334 331 328 324 321 318 318 321 322 321 323 326 328 330 334 337 341
332 331 331 330 329 328 328 328 328 328 329 329 328 328 326 325 324 323 323 324 324 324 324 325 325 326 327 327 327 328 328 329 330 330 330 331 331 331 331 332 332 333 335 336 335 332 329 326 323 321 320 320 319 321 323 323 323 325 328 331 333 335 339
Wind_Speed
5 5 5 5 5 5 5 6 8 10 11 13 14 15 15 16 15 14 13 13 11 10 9 7 5 5 4 4 4 4 5 6 8 10 12 13 14 14 15 15 16 16 16 17 18 18 19 19 19 20 20 21 22 23 24 25 27 27 27 28 26 26 29
6 6 6 5 5 6 6 7 9 11 12 14 15 15 15 15 14 12 11 10 8 6 6 6 6 5 4 3 2 2 2 3 4 6 8 10 11 12 14 14 15 16 16 17 18 19 19 19 20 20 20 20 21 22 23 25 26 26 26 26 26 29 32
7 7 6 6 6 6 6 7 9 12 13 13 13 13 14 13 12 11 10 9 10 9 9 8 7 5 3 2 3 4 5 6 7 8 9 11 12 13 14 14 15 16 17 18 19 19 19 19 19 19 19 19 20 21 22 23 24 24 24 25 27 31 32
8 8 7 6 6 6 5 6 8 10 11 11 12 12 12 10 9 10 11 13 13 12 10 7 5 4 4 4 5 6 7 8 9 10 11 13 14 15 15 16 16 17 18 18 18 19 18 18 18 19 19 19 19 20 21 22 23 22 22 24 27 30 30
7 6 6 5 5 5 5 5 7 9 9 9 10 11 12 14 14 15 14 13 11 9 7 6 5 5 5 4 4 4 5 7 8 10 12 13 15 16 16 17 17 17 18 18 18 18 18 18 18 19 19 19 19 20 20 21 22 21 21 23 26 27 29
7 6 6 6 6 5 5 5 8 10 11 12 14 16 17 17 16 14 12 10 8 7 6 6 6 6 5 5 4 3 4 7 9 11 13 15 16 17 18 18 18 18 19 18 18 18 18 18 19 19 19 19 19 20 20 21 22 21 21 23 24 25 27
8 7 7 6 6 6 5 6 9 11 13 16 18 18 18 16 14 12 10 8 7 7 7 7 7 6 6 6 5 6 7 9 11 13 15 17 17 18 19 20 20 20 20 19 19 19 19 19 18 18 18 19 19 19 20 21 21 21 22 24 24 24 25
8 7 7 7 6 6 5 6 9 12 15 17 18 18 17 14 12 10 9 8 8 8 9 8 8 7 7 7 8 9 11 12 14 15 17 18 19 20 21 21 21 21 21 21 20 20 19 19 18 17 18 19 19 20 20 21 21 22 23 24 24 24 23
6 6 6 6 6 6 6 8 12 14 15 17 17 17 16 14 13 12 11 11 10 10 11 10 10 10 10 11 12 13 13 14 16 18 19 20 21 22 22 22 22 21 22 22 22 21 20 19 19 18 18 19 20 21 20 21 21 22 23 24 24 24 24
6 6 5 6 6 6 6 8 11 12 13 15 16 17 16 15 15 14 14 13 13 14 14 13 13 13 13 14 15 15 15 17 18 20 21 22 23 24 24 24 23 22 23 23 23 22 20 20 19 19 20 21 22 22 22 22 22 23 23 24 24 25 25
5 6 6 6 6 6 6 7 8 9 12 14 16 17 17 17 16 16 17 16 17 17 17 15 15 15 16 16 17 17 17 18 19 21 23 24 25 25 25 24 24 23 24 24 24 23 21 21 20 21 22 22 23 24 24 24 24 24 25 25 25 25 26
6 6 7 8 7 7 7 7 6 8 12 14 15 17 18 18 18 19 19 19 19 18 18 17 17 18 18 18 18 18 18 19 20 22 24 25 25 26 25 24 24 24 24 24 24 23 23 22 22 22 23 23 24 24 25 26 26 26 26 26 26 26 27
6 5 6 7 7 7 7 7 7 8 11 14 16 17 18 19 20 21 21 20 20 19 19 19 19 20 20 20 19 19 19 20 21 23 25 26 26 25 24 24 24 25 25 24 24 24 24 24 24 24 24 24 25 25 26 27 27 27 27 27 27 27 27
5 5 5 5 6 7 7 7 7 7 10 14 15 17 18 20 22 22 21 21 21 21 21 21 21 21 21 21 20 20 21 21 22 24 26 27 26 25 24 24 25 25 25 25 25 25 25 25 26 25 25 26 26 27 27 27 28 28 27 27 28 28 28
7 7 7 7 7 7 7 7 7 6 9 12 14 16 18 21 22 21 20 21 22 22 23 23 22 22 22 21 21 22 22 22 23 24 26 27 27 26 25 25 25 25 25 25 25 26 26 26 26 26 27 27 27 28 27 28 30 29 28 27 27 27 27
8 8 7 7 7 6 5 5 6 5 7 10 12 14 17 19 20 20 20 22 23 23 24 23 22 21 21 21 22 23 22 22 23 25 26 27 27 27 26 25 25 25 25 25 25 26 26 26 27 27 28 28 28 28 28 29 30 30 29 27 26 27 27
8 7 7 6 5 4 4 4 5 5 6 10 13 16 17 20 22 22 22 22 23 23 22 21 19 19 19 20 21 21 20 21 23 25 27 27 26 26 25 25 25 25 25 25 25 26 26 26 27 28 28 28 28 28 29 30 32 31 29 28 27 28 29
7 7 6 4 3 3 4 5 5 6 8 12 16 17 19 20 21 20 20 21 21 20 18 17 16 17 18 18 18 18 20 22 24 25 26 25 25 25 25 25 25 26 26 26 26 26 26 26 27 28 28 28 29 29 30 31 32 32 31 30 29 29 29
5 5 4 2 3 5 5 6 7 9 12 14 15 16 16 16 15 16 17 18 17 16 15 15 16 16 16 17 17 20 22 23 24 24 24 24 24 25 25 25 26 26 26 27 26 26 26 27 27 27 28 28 29 30 31 32 33 32 32 32 30 30 30
2 3 3 4 5 6 6 6 7 10 12 13 14 14 13 13 13 14 15 15 14 14 15 15 15 15 16 17 19 22 23 23 22 23 23 24 24 25 26 26 26 27 27 27 26 26 27 27 27 27 28 28 29 31 32 32 33 33 33 33 32 31 30
3 4 5 6 5 5 5 6 7 10 12 11 11 11 11 11 11 11 11 12 12 14 14 15 15 16 18 20 21 23 22 22 22 22 23 24 25 25 26 26 27 27 27 26 26 27 27 27 27 28 29 29 29 30 32 33 32 32 33 33 33 32 32
6 6 6 5 5 5 5 6 8 10 10 9 9 9 9 9 9 9 11 12 14 16 16 17 18 19 20 21 22 23 22 22 23 23 24 25 25 25 26 27 27 27 27 26 26 27 27 27 27 28 28 29 29 30 32 33 32 32 33 34 34 34 34
4 5 4 4 5 5 6 6 6 6 6 6 7 7 8 9 10 12 14 16 18 18 19 19 19 20 21 22 22 22 22 22 23 24 24 24 24 25 26 27 27 28 27 26 26 27 27 27 28 28 28 30 30 30 32 33 33 33 34 34 34 34 33
2 3 3 4 5 5 4 3 3 3 4 6 8 9 11 12 13 14 16 18 19 19 19 19 20 21 22 22 22 22 22 23 23 24 24 24 24 25 27 27 28 28 27 26 27 28 28 28 29 29 30 30 31 31 32 34 35 35 35 35 34 34 33
2 1 2 4 3 1 1 1 2 4 7 9 11 12 13 13 14 15 16 18 19 19 19 20 22 22 23 23 23 23 23 23 24 24 24 24 25 26 27 28 27 28 28 27 27 28 29 29 29 30 30 30 31 33 34 35 36 36 36 35 34 33 33
2 2 1 2 3 3 2 3 5 7 9 11 12 12 12 13 14 15 17 18 18 19 20 22 23 23 23 23 23 23 24 24 24 24 25 25 27 27 27 27 27 27 28 28 28 28 29 30 30 31 31 31 32 33 35 35 35 36 36 35 33 32 32
0 2 3 4 3 1 3 5 6 8 10 11 11 12 12 13 14 15 17 17 17 19 21 23 24 23 23 23 23 24 24 24 24 25 25 26 27 27 27 27 27 27 28 28 28 28 29 30 31 30 31 32 31 32 34 34 35 35 36 35 34 33 32
3 3 3 3 2 3 5 7 9 10 12 12 12 13 13 14 14 15 17 17 18 21 23 23 24 23 23 23 23 24 24 24 25 25 25 26 26 26 26 27 26 27 27 27 27 28 28 30 30 29 30 31 30 30 32 33 34 35 35 35 35 33 32
3 3 3 3 4 5 6 8 11 12 14 14 14 13 13 14 15 16 16 17 20 23 24 23 23 23 23 22 22 23 23 24 25 25 25 26 26 26 26 27 27 27 26 26 26 27 28 29 29 28 28 28 28 29 29 29 31 33 34 34 34 32 31
3 4 4 4 5 6 8 10 12 13 14 14 13 14 14 15 16 16 16 18 21 22 22 22 23 22 22 21 21 22 23 24 26 26 27 27 27 26 26 27 27 27 26 25 25 25 26 27 27 25 24 25 26 26 26 26 28 30 32 33 32 30 29
4 4 5 6 7 8 9 10 11 13 13 14 14 16 16 16 16 16 17 18 20 21 21 22 22 21 21 21 22 23 24 25 26 28 28 27 26 25 25 26 26 25 25 24 24 24 24 25 25 23 21 22 23 24 24 25 27 29 29 29 28 28 28
4 4 5 7 8 8 8 9 10 11 13 15 17 17 17 17 16 16 17 19 20 20 21 21 21 21 21 22 23 24 25 25 27 28 28 27 25 24 25 26 25 25 25 24 23 23 23 24 24 22 20 19 19 20 23 25 26 28 27 26 24 24 24
4 4 5 6 7 7 8 9 10 12 13 15 17 17 17 18 18 18 19 20 20 21 21 21 21 21 22 23 24 25 24 25 26 27 27 26 25 24 25 26 25 25 25 23 22 22 24 24 23 20 18 16 16 19 22 24 25 26 26 25 22 21 21
4 4 5 5 6 7 9 10 11 11 13 14 16 17 18 19 20 20 20 21 22 21 21 21 20 20 22 24 24 25 25 25 25 25 25 25 25 25 26 25 24 24 25 24 24 25 25 23 21 19 16 14 16 19 21 24 26 25 23 20 17 16 17
3 4 4 5 7 9 10 11 11 12 13 15 16 17 18 19 21 21 21 22 22 21 21 21 21 21 23 24 23 24 25 25 24 23 23 24 26 26 26 25 25 25 27 28 28 28 26 22 20 18 17 17 21 22 20 23 29 29 24 20 18 17 17
3 4 5 7 9 10 12 12 12 12 14 15 16 17 18 20 21 22 23 23 23 22 22 22 23 24 25 23 22 23 24 24 23 23 23 23 25 25 26 26 25 25 26 29 30 29 26 22 18 17 18 22 28 28 25 27 32 32 27 24 22 20 18
3 5 6 8 10 11 12 13 13 14 14 16 17 17 19 20 22 23 24 24 23 23 22 23 23 24 24 23 22 24 24 24 24 23 22 23 23 23 24 25 25 25 26 25 24 22 20 18 16 17 20 23 28 30 28 26 26 24 22 21 19 16 15
3 5 7 9 10 10 12 13 14 15 16 17 18 18 19 21 23 24 24 24 24 24 23 23 23 23 23 23 24 25 25 24 24 23 22 21 20 20 21 22 23 23 22 18 14 13 13 13 14 19 22 20 19 21 21 18 15 14 14 14 13 10 10
Wind_Direction
170 188 194 190 193 200 209 213 214 221 230 234 239 245 250 254 257 258 257 256 254 257 257 248 227 215 220 225 239 252 260 268 270 271 272 273 274 275 277 278 278 279 280 279 281 283 285 288 287 284 281 279 278 278 278 277 275 271 271 271 270 269 267
180 194 198 190 192 202 211 214 215 220 226 231 236 242 248 252 255 254 251 243 233 222 206 185 168 164 163 170 198 247 264 280 282 280 282 279 279 278 276 277 276 275 275 276 280 283 285 289 288 285 282 277 275 276 276 276 273 269 266 262 260 263 261
186 195 196 193 195 199 205 209 215 221 225 229 232 237 242 244 244 237 223 199 176 161 154 151 153 159 171 205 250 270 272 279 281 285 292 291 288 285 280 277 275 275 277 279 283 287 289 292 292 290 287 282 281 281 279 278 274 271 267 259 257 261 262
191 196 192 194 196 197 199 201 212 219 224 230 231 231 226 213 198 184 174 166 158 154 155 161 173 198 230 255 271 280 279 280 286 294 302 304 301 296 289 285 281 280 281 282 286 290 295 297 296 295 292 288 287 286 284 283 280 275 270 263 261 263 265
192 188 184 193 195 196 196 195 201 203 207 213 210 202 185 169 160 157 157 160 162 166 176 190 209 224 234 248 261 278 285 289 294 299 301 302 301 297 291 288 287 286 286 287 289 292 296 298 298 297 295 291 289 289 287 286 284 281 275 268 263 262 263
188 184 187 195 193 192 190 184 184 182 183 182 176 170 164 159 158 159 163 170 180 194 204 211 219 221 224 226 232 264 296 304 303 301 299 297 297 294 291 290 290 290 292 293 294 294 294 296 297 297 296 292 289 287 286 284 283 280 276 273 268 263 263
184 184 189 192 187 182 178 172 168 169 174 172 166 164 163 164 167 171 181 196 211 222 223 224 227 232 240 243 255 281 295 300 301 299 296 295 295 295 294 293 292 293 297 297 295 294 293 292 292 294 295 294 290 285 283 282 282 280 277 275 273 269 266
185 186 187 186 176 169 169 165 161 165 170 168 166 168 171 175 182 192 209 225 234 238 241 247 252 257 264 269 277 285 288 291 292 292 290 290 293 296 297 296 295 296 297 296 295 293 290 287 287 287 289 291 291 288 285 283 282 282 280 277 274 271 268
182 182 179 174 167 167 171 166 164 168 172 173 175 178 181 188 198 212 229 237 239 247 255 262 267 272 276 278 281 282 285 287 288 290 288 287 291 294 297 297 297 296 296 296 297 294 289 287 286 284 283 285 287 288 287 286 284 283 280 277 274 271 267
173 168 166 166 165 169 170 165 167 172 177 183 188 189 193 202 212 226 238 243 245 251 258 264 268 274 277 278 280 281 283 287 290 291 290 290 292 293 296 297 297 296 295 295 296 294 290 289 287 285 282 280 282 284 284 285 285 284 281 276 273 270 269
169 164 161 164 167 170 172 169 171 181 189 194 198 201 206 214 225 235 242 246 249 253 260 266 270 274 277 279 280 280 283 288 292 293 293 293 295 295 297 298 297 296 295 295 294 293 291 289 286 285 283 280 280 281 282 283 283 284 283 279 275 272 270
172 173 170 172 174 175 177 179 184 193 200 205 208 211 217 225 234 240 245 250 254 258 265 272 275 276 278 280 281 280 284 289 292 295 296 296 297 299 300 299 298 297 296 294 293 291 289 287 285 284 283 282 281 280 280 281 280 280 281 280 278 273 271
175 174 175 175 172 174 181 189 200 208 213 217 221 223 228 234 240 245 250 257 263 267 272 277 279 279 280 282 281 280 282 288 292 296 298 299 301 301 300 298 297 296 295 294 292 290 287 286 285 284 283 282 281 280 279 278 278 278 278 279 277 273 271
167 166 173 176 176 185 193 202 214 221 226 229 232 236 239 243 247 251 257 265 271 274 277 280 281 280 281 282 281 280 281 286 292 296 299 301 303 301 298 296 296 295 293 292 289 287 286 285 285 284 283 281 280 279 278 276 276 277 276 276 275 273 270
172 173 181 190 196 202 205 214 224 229 237 242 245 249 251 252 255 259 264 269 274 277 281 283 282 281 282 282 278 278 281 286 292 296 299 301 301 299 296 296 295 294 292 290 288 287 286 286 285 284 282 280 278 277 276 275 275 275 275 274 273 272 271
181 184 192 199 208 217 220 233 247 257 269 270 266 265 265 266 269 270 273 275 278 283 286 286 283 281 280 277 276 280 285 291 296 298 300 301 299 297 296 296 296 295 292 290 289 288 287 286 284 281 279 278 277 276 275 274 274 274 274 272 270 270 271
187 191 203 212 219 238 257 271 281 288 285 276 272 272 272 274 276 275 276 279 282 287 290 286 281 279 278 279 283 288 292 296 299 300 300 299 297 296 296 296 296 294 292 290 289 288 287 285 282 280 278 277 276 275 274 274 275 274 273 271 269 269 270
193 198 210 226 248 276 279 273 271 263 259 264 269 272 272 272 273 274 278 283 285 288 288 283 282 285 287 290 293 295 298 299 300 299 298 297 296 295 296 295 293 292 289 288 287 287 286 284 281 280 279 277 277 276 275 275 275 275 274 271 270 270 270
199 209 219 235 256 261 255 252 254 253 257 264 268 272 275 276 276 278 283 286 287 288 288 289 294 296 295 297 298 299 302 302 301 299 297 296 296 296 296 293 290 289 288 287 287 286 285 283 282 280 279 278 278 277 277 277 277 276 274 273 272 272 271
216 236 241 238 240 247 250 253 260 261 262 265 269 276 284 287 286 286 289 291 293 296 298 299 301 298 296 298 301 302 303 302 300 298 297 297 297 295 294 291 289 289 289 288 288 286 285 284 282 281 280 279 278 278 278 278 277 277 276 275 274 273 272
228 228 231 238 240 245 249 249 259 266 268 272 283 294 300 302 303 303 302 304 303 303 303 303 301 297 297 300 301 302 301 301 301 299 297 297 296 294 292 290 289 290 291 290 288 286 284 284 283 283 283 281 279 278 279 278 278 277 277 275 274 274 272
210 208 213 223 223 232 249 260 270 279 287 299 312 317 318 320 319 314 309 306 304 303 303 303 301 299 298 299 299 300 300 301 300 297 296 295 294 291 290 289 289 290 291 290 288 286 285 284 283 283 283 282 280 279 278 278 278 278 277 276 274 273 271
180 185 208 230 235 253 280 299 304 309 321 328 330 331 331 328 320 314 310 305 303 304 305 303 300 297 296 296 296 298 299 298 296 293 293 293 291 289 289 289 289 290 291 290 288 287 286 285 285 284 283 282 281 279 278 278 279 279 278 276 274 271 269
134 184 247 292 297 292 299 321 343 357 351 335 329 329 328 322 314 310 306 302 301 302 301 297 294 293 293 294 296 297 298 297 294 292 291 292 291 290 289 289 289 290 291 290 288 288 288 287 287 286 284 283 282 280 279 279 279 279 277 275 272 269 266
352 320 321 329 324 291 126 71 359 346 340 330 324 322 319 313 307 303 298 295 297 296 292 289 290 292 293 294 296 297 298 298 296 294 293 292 292 292 291 290 291 293 293 292 290 290 289 289 288 287 286 286 285 283 282 280 280 280 278 274 271 266 262
304 315 44 85 108 115 81 359 340 331 324 318 314 313 310 306 305 301 296 295 293 289 286 288 291 295 295 295 296 297 298 299 298 296 295 294 294 294 293 292 294 295 295 294 292 291 291 291 290 289 288 288 286 284 283 281 280 280 278 274 269 264 260
169 163 139 126 113 44 333 324 317 305 297 296 303 307 309 309 306 299 296 295 290 286 288 294 297 298 297 296 296 297 298 299 299 297 297 297 297 297 296 295 296 296 295 295 294 293 292 292 291 288 287 286 285 283 282 280 279 278 278 275 269 265 260
118 144 158 166 231 275 285 289 288 285 287 295 305 309 313 312 304 298 296 292 288 292 299 303 303 302 300 299 298 298 299 300 300 300 299 300 300 299 297 297 298 297 296 295 294 292 291 290 289 287 286 285 283 281 280 279 279 279 277 275 270 266 261
149 170 195 223 255 272 289 294 292 291 296 302 307 310 314 312 304 299 297 292 295 304 308 307 307 305 303 300 299 300 301 301 302 302 302 301 301 299 298 298 298 297 295 294 293 291 290 289 289 287 287 286 284 283 281 280 280 280 278 275 270 265 260
194 211 239 264 281 297 310 307 301 300 301 304 309 312 315 314 308 301 297 299 307 314 314 312 312 309 304 301 301 301 302 303 303 302 301 301 301 299 297 297 297 295 294 293 291 290 289 289 289 287 287 287 286 286 284 282 283 283 280 276 269 264 260
231 250 281 296 299 305 310 308 304 303 304 308 314 317 319 320 313 303 302 309 317 320 318 317 315 308 303 302 301 300 302 302 301 300 300 299 299 297 296 296 296 295 295 293 291 289 290 290 288 285 284 283 284 285 286 286 288 288 283 276 269 264 261
264 287 306 309 310 312 312 312 310 308 309 313 318 322 325 325 320 310 309 316 321 321 321 320 314 306 301 299 298 298 299 299 299 300 300 299 298 296 294 295 296 296 295 293 291 290 291 290 288 285 280 278 280 285 287 289 292 290 285 277 269 265 260
286 305 312 311 317 322 320 319 318 315 313 314 319 325 327 326 323 319 317 320 323 322 322 320 313 305 300 297 298 299 299 299 299 300 300 299 298 297 296 296 295 295 293 292 293 294 293 290 286 284 281 281 285 288 289 291 292 290 285 278 271 267 259
284 304 314 314 320 326 326 323 320 317 315 314 319 325 327 325 324 324 323 323 323 322 320 316 310 305 301 299 300 300 300 299 298 298 298 298 298 298 298 296 295 293 291 291 291 288 285 285 286 286 288 291 292 292 293 292 290 287 283 280 279 278 269
284 292 305 318 326 331 331 327 322 319 316 316 320 325 325 324 324 324 324 323 323 322 318 312 309 305 301 300 300 299 299 299 297 295 295 295 296 296 294 293 294 293 291 293 294 289 284 285 288 289 294 297 293 290 288 285 286 286 282 279 284 285 276
292 298 318 333 334 333 334 331 326 321 317 318 323 326 324 323 324 325 324 323 322 321 316 312 310 306 302 301 300 299 299 297 293 291 290 290 292 295 296 297 299 295 293 295 299 296 292 291 287 289 302 307 301 295 287 280 284 289 288 287 290 284 269
298 314 330 337 335 332 331 329 326 323 320 321 325 326 324 324 324 323 324 323 322 320 315 310 306 302 299 298 297 297 296 293 289 288 287 287 291 296 300 301 302 300 299 299 300 299 297 294 290 296 309 313 306 301 297 291 289 292 295 297 298 289 268
323 335 333 333 334 332 328 327 326 325 323 324 324 324 324 324 322 322 323 324 322 319 313 307 300 295 293 294 294 294 293 290 288 288 289 292 296 298 297 297 299 303 306 305 306 312 316 315 312 314 319 320 314 310 312 312 306 303 307 310 306 289 263